www.pogodaiklimat.ru

Погода и климат >> Архив погоды >> Индия >> Орисса >> Бхубанешвар


ПОГОДА в Бхубанешваре

  • Прогноз погоды в Бхубанешваре
  • Монитор погоды в Бхубанешваре

АРХИВ ПОГОДЫ в Бхубанешваре

Время (UTC), дата Ветер
(напр.,м/с)
 
Видим.   Явления Облачность Т
(С)
Тd
(С)
f
(%)
Тe
(С)
Тes
(С)
Комфортность P
(гПа)
Po
(гПа)
Тmin
(С)
Tmax
(С)
R
(мм)
R24
(мм)
S
(см)
15 11.09 штиль 0 2000 м гроза, ливневой дождь 10/6 540 м
[Cb cap As op]
+25.0 +25.0 100 +36 +36 очень
душно
1004.5 999.2 37
18 11.09 штиль 0 2000 м слаб. дождь {гроза} 10/6 540 м
[Cb calv As op]
+25.8 +25.8 100 +38 +38 очень
душно
1005.1 999.8 39
21 11.09 Ю 3 2000 м слаб. дождь 10/6 540 м
[Cb calv As op]
+26.6 +26.6 100 +41 +41 опасность
перегрева
1003.1 997.9 40
00 12.09 Ю 4 2000 м в посл. час дождь 10/6 540 м
[Cb calv As op]
+26.4 +26.4 100 +40 +40 очень
душно
1003.3 998.0 41
03 12.09 Ю 6 2000 м слаб. дождь 10/6 540 м
[Cb calv As op]
+26.8 +26.2 97 +41 +41 опасность
перегрева
1005.8 1000.5 +24.0 41
06 12.09 Ю 8 4000 м мгла {дождь} 10/6 540 м
[Cb calv As op]
+28.0 +26.6 92 +43 +43 опасность
перегрева
1005.6 1000.4 0.0
09 12.09 ЮЗ 8 4000 м мгла 10/8 480 м
[Sc As op]
+28.6 +27.2 92 +45 +45 опасность
перегрева
1003.3 998.1 0.0
12 12.09 Ю 3 4000 м мгла 10/4 600 м
[Sc diur, vesp As op]
+27.6 +25.6 89 +41 +41 опасность
перегрева
1002.5 997.3 +28.9 0.0
15 12.09 Ю 5 4000 м мгла 9/8 360 м
[St As op]
+27.2 +25.8 92 +40 +40 очень
душно
1005.8 1000.5 0.0
18 12.09 Ю 5 4000 м мгла 9/6 540 м
[Sc diur, vesp As op]
+27.2 +26.1 94 +41 +41 опасность
перегрева
1006.7 1001.4 0.0
21 12.09 Ю 5 4000 м мгла 9/6 540 м
[Sc diur, vesp Ac trans]
+27.0 +25.6 92 +40 +40 очень
душно
1005.2 999.9 0.0
00 13.09 Ю 2 4000 м мгла 9/6 540 м
[Sc diur, vesp Ac trans]
+26.6 +25.7 95 +39 +39 очень
душно
1006.0 1000.7 0.0
03 13.09 Ю 5 4000 м мгла 6/3 540 м
[Sc Ac trans]
+28.6 +26.4 88 +44 +46 опасность
перегрева
1007.8 1002.6 +25.6 0.0
06 13.09 Ю 6 4000 м мгла 8/4 540 м
[Sc diur, vesp Ac trans Ci fib]
+31.2 +25.9 73 +46 +49 опасность
перегрева
1007.7 1002.5
09 13.09 Ю 6 4000 м 8/4 540 м
[Sc diur, vesp Ac trans Ci fib]
+31.0 +26.8 78 +48 +50 опасность
перегрева
1004.9 999.7
12 13.09 Ю 4 4000 м 6/4 540 м
[Cb calv Ac trans Ci fib]
+29.2 +26.7 86 +45 +45 опасность
перегрева
1004.9 999.7 +31.7
15 13.09 штиль 0 4000 м мгла 5/3 540 м
[Sc diur, vesp Ac trans Ci fib]
+27.4 +26.0 92 +41 +41 опасность
перегрева
1007.1 1001.8
18 13.09 Ю 1 4000 м мгла 5/1 600 м
[Sc diur, vesp Ac trans Ci fib]
+26.8 +25.7 94 +40 +40 очень
душно
1006.7 1001.4
21 13.09 Ю 3 4000 м мгла 5/5 600 м
[Sc diur, vesp Ac trans Ci fib]
+26.4 +25.5 95 +39 +39 очень
душно
1006.1 1000.8
00 14.09 Ю 3 2000 м мгла 9/6 540 м
[Sc diur, vesp Ac trans]
+26.8 +26.2 97 +41 +41 опасность
перегрева
1006.4 1001.1
03 14.09 Ю 6 2000 м мгла 8/5 540 м
[Sc Ac trans Ci fib]
+29.9 +26.7 83 +46 +48 опасность
перегрева
1007.9 1002.7 +25.5
06 14.09 Ю 4 4000 м мгла 8/5 540 м
[Sc diur, vesp Ac trans Ci fib]
+31.6 +27.2 78 +50 +55 опасность
перегрева
1007.5 1002.3
09 14.09 Ю 1 4000 м мгла 5/4 540 м
[Sc diur, vesp Ac trans]
+33.0 +26.9 70 +51 +58 опасность
перегрева
1004.4 999.3
12 14.09 Ю 4 4000 м мгла 6/5 540 м
[Sc diur, vesp Ac trans]
+30.8 +26.9 80 +48 +48 опасность
перегрева
1004.9 999.7 +33.4
15 14.09 Ю 2 4000 м в посл. час гроза 5/4 540 м
[Sc Ac trans]
+28.8 +26.9 89 +45 +45 опасность
перегрева
1007.1 1001.9
18 14.09 Ю 1 4000 м мгла 8/4 540 м
[Sc Ac trans]
+28.0 +26.6 92 +43 +43 опасность
перегрева
1007.1 1001.9
21 14.09 Ю 1 4000 м мгла 8/5 540 м
[Sc Ac trans]
+27.6 +26.0 91 +41 +41 опасность
перегрева
1006.1 1000.9
00 15.09 штиль 0 4000 м мгла 8/5 540 м
[Sc Ac trans]
+27.6 +26.8 95 +43 +43 опасность
перегрева
1005.9 1000.7
03 15.09 штиль 0 4000 м мгла 8/6 540 м
[Cb calv Ac trans]
+29.6 +27.7 90 +48 +52 опасность
перегрева
1007.4 1002.2 +26.1
06 15.09 Ю 3 4000 м мгла 6/5 540 м
[Sc diur, vesp Ac trans]
+33.2 +27.7 73 +53 +60 опасность
перегрева
1006.4 1001.2
09 15.09 Ю 4 4000 м мгла 6/5 540 м
[Sc diur, vesp Ac trans]
+32.6 +27.1 73 +51 +54 опасность
перегрева
1003.6 998.5
12 15.09 Ю 4 4000 м мгла 4/3 540 м
[Sc diur, vesp Ac trans]
+30.6 +27.0 81 +48 +48 опасность
перегрева
1003.7 998.5 +33.8
15 15.09 Ю 3 2000 м мгла 3/1 540 м
[Sc Ac trans]
+28.4 +26.4 89 +43 +43 опасность
перегрева
1005.5 1000.3
18 15.09 штиль 0 2000 м мгла 3/1 540 м
[Sc Ac trans]
+28.0 +26.9 94 +44 +44 опасность
перегрева
1006.0 1000.8
21 15.09 штиль 0 2000 м мгла 5/4 540 м
[Sc Ac trans]
+27.4 +26.8 97 +43 +43 опасность
перегрева
1004.9 999.7
00 16.09 штиль 0 4000 м мгла 6/1 600 м
[St Ci fib]
+27.2 +26.9 98 +42 +42 опасность
перегрева
1005.1 999.9
03 16.09 Ю 1 4000 м мгла 6/5 540 м
[Sc diur, vesp Ac trans]
+29.6 +27.4 88 +48 +52 опасность
перегрева
1005.7 1000.5 +26.5
06 16.09 Ю 3 4000 м 6/4 540 м
[Sc diur, vesp Ac trans Ci fib]
+33.4 +27.4 71 +53 +61 опасность
перегрева
1005.3 1000.2
09 16.09 Ю 3 4000 м 6/4 540 м
[Sc diur, vesp Ac trans]
+34.0 +27.1 67 +52 +57 опасность
перегрева
1002.2 997.1
12 16.09 Ю 4 4000 м мгла 6/4 540 м
[Sc diur, vesp Ac trans]
+31.0 +27.1 80 +49 +49 опасность
перегрева
1002.3 997.1 +34.9
15 16.09 Ю 1 4000 м мгла 5/4 540 м
[Cb calv Ac trans]
+28.6 +26.6 89 +44 +44 опасность
перегрева
1004.9 999.7
18 16.09 Ю 2 4000 м зарница {гроза} 6/4 540 м
[Cb calv Ac trans]
+28.0 +26.6 92 +43 +43 опасность
перегрева
1006.0 1000.8
21 16.09 ЮВ 2 4000 м мгла {гроза} 4/4 450 м
[Sc diur, vesp Ac trans]
+27.0 +26.2 95 +41 +41 опасность
перегрева
1004.2 999.0
00 17.09 В 1 4000 м мгла 6/3 540 м
[Sc diur, vesp Ac trans Ci fib]
+27.0 +25.9 94 +40 +40 очень
душно
1004.7 999.5
03 17.09 Ю 1 4000 м мгла 5/4 540 м
[Sc diur, vesp Ac trans]
+29.6 +28.5 94 +50 +56 опасность
перегрева
1006.5 1001.3 +25.9
06 17.09 Ю 1 4000 м мгла 8/6 540 м
[Sc diur, vesp Ac trans]
+33.2 +26.0 66 +49 +55 опасность
перегрева
1006.2 1001.0
09 17.09 штиль 0 4000 м гроза, ливневой дождь 9/6 540 м
[Cb cap Ac trans]
+29.0 +27.6 92 +47 +50 опасность
перегрева
1004.7 999.5 11
12 17.09 ЮВ 4 4000 м мгла {гроза} 8/8 540 м
[Sc diur, vesp]
+29.2 +25.8 82 +44 +44 опасность
перегрева
1004.1 998.9 +34.2 11
15 17.09 штиль 0 4000 м мгла 3/3 540 м
[Sc diur, vesp]
+27.6 +25.9 90 +41 +41 опасность
перегрева
1006.9 1001.7 11
18 17.09 штиль 0 4000 м мгла 3/3 540 м
[Sc diur, vesp]
+27.0 +26.2 95 +41 +41 опасность
перегрева
1006.9 1001.6 11
21 17.09 штиль 0 4000 м мгла 3/3 540 м
[Sc diur, vesp]
+27.0 +26.4 97 +41 +41 опасность
перегрева
1005.9 1000.6 11
00 18.09 штиль 0 4000 м мгла 6/5 540 м
[Sc diur, vesp Ac trans]
+27.0 +26.2 95 +41 +41 опасность
перегрева
1006.4 1001.1 11
03 18.09 ЮВ 2 2000 м слаб. дождь 9/6 540 м
[Cb cap As op]
+28.0 +27.2 95 +44 +46 опасность
перегрева
1008.1 1002.9 +25.5 14
06 18.09 В 1 4000 м слаб. дождь 8/6 540 м
[Sc diur, vesp Ac trans]
+28.0 +26.6 92 +43 +50 опасность
перегрева
1008.3 1003.1 2
09 18.09 В 4 4000 м мгла {дождь} 8/6 540 м
[Cb calv Ci fib]
+31.0 +26.8 78 +48 +51 опасность
перегрева
1006.3 1001.1 2
12 18.09 В 2 4000 м {дождь} 6/5 540 м
[Sc diur, vesp Ac trans]
+28.4 +25.9 86 +42 +42 опасность
перегрева
1006.4 1001.2 +32.2 3

 

Местоположение метеостанции Бхубанешвар (Орисса, Индия): широта 20.25 долгота 85.83 высота над уровнем моря 46 м.

В архиве по умолчанию представлена погода в Бхубанешваре за последнюю неделю. Архивные данные за месяц целиком и за предыдущие месяцы, начиная с января 2011 года, Вы можете получить, выбрав интересующий диапазон дат из раскрывающегося списка и нажав кнопку "Ввод!".


*Определитесь, кто Вы:
робот инопланетянин человек

Внимание! Время в таблицах - всемирное. Для получения местного времени необходимо прибавить поправку, которая равна 5.5 ч.

Смотрите также архив погоды в соседних городах и на ближайших метеорологических станциях:

Погода в Каттаке (Орисса, Индия) (27 км)
Погода в Пури (Орисса, Индия) (50 км)
Погода в Парадипе (Орисса, Индия) (89 км)
Погода в Ангуле (Орисса, Индия) (100 км)
Погода в Чандбали (Орисса, Индия) (111 км)
Погода в Гопалпере (Орисса, Индия) (148 км)
Погода в Кендуджхаре (Орисса, Индия) (156 км)
Погода в Пхулбани (Орисса, Индия) (165 км)
Погода в Баласоре (Орисса, Индия) (182 км)
Погода в Барипаде (Орисса, Индия) (211 км)

Пояснения к столбцам:

Ветер - указаны скорость ветра в м/с - средняя за 10 мин, порывы в срок и между сроками (в фигурных скобках) и направление, откуда дует ветер: С - северный, СВ - северо-восточный, В - восточный, ЮВ - юго-восточный, Ю - южный, ЮЗ - юго-западный, З - западный, СЗ - северо-западный.
Видимость - горизонтальная дальность видимости в метрах или километрах. При видимости от 1 до 10 км при отсутствии осадков обычно наблюдается дымка, при ухудшении видимости до 1 км и менее - туман. В сухую погоду видимость может ухудшаться дымом, пылью или мглою.
Явления - указаны атмосферные явления, наблюдавшиеся в срок или в последний час перед сроком; фигурными скобками обозначены явления, наблюдавшиеся между сроками (за 1-3 часа до срока); квадратными скобками обозначены град или гололедные отложения с указанием их диаметра в мм.
Облачность - указаны через наклонную черту общая и нижняя облачность в баллах и высота нижней границы облаков в метрах; квадратными скобками обозначены формы облаков: Ci - перистые, Cs - перисто-слоистые, Cc - перисто-кучевые, Ac - высококучевые, As - высокослоистые, Sc - слоисто-кучевые, Ns - слоисто-дождевые, Cu - кучевые, Cb - кучево-дождевые. Подробнее классификацию облаков см. в Атласе облаков (PDF).
T - Температура воздуха - температура, измеренная на высоте 2 м над землей.
Td - Температура точки росы - температура, при понижении до которой содержащийся в воздухе водяной пар достигнет насыщения.
f - Относительная влажность воздуха - влажноcть воздуха, измеренная на высоте 2 м над землей.
Te - Эффективная температура - температура, которую ощущает одетый по сезону человек в тени. Характеристика душности погоды. При расчете учитывается влияние влажности воздуха и скорости ветра на теплоощущения человека.
Tes - Эффективная температура на солнце - температура, которую ощущает человек, с поправкой на солнечный нагрев. Характеристика знойности погоды. Зависит от высоты солнца над горизонтом, облачности и скорости ветра. Ночью, в пасмурную погоду, а также при ветре 12 м/с и более поправка равна нулю.
P - Атмосферное давление - приведенное к уровню моря атмосферное давление.
Po - Атмосферное давление - измеренное на уровне метеостанции атмосферное давление.
Tmin - Минимальная температура - минимум температуры воздуха на высоте 2 м над землей.
Tmax - Максимальная температура - максимум температуры воздуха на высоте 2 м над землей.
R - Количество осадков - Количество выпавших осадков за период времени, мм. При наведении курсора мыши на число - период времени, за который выпало указанное количество осадков.
R24 - Количество осадков - Количество выпавших осадков за 24 часа, мм.
S - Снежный покров - Высота снежного покрова, см. При наведении курсора мыши на число - состояние снежного покрова и степень покрытия местности в баллах.